STARLINK-1319, 45379

Orbit data source: Space-Track

STARLINK-1319, 45379 is a payload satellite owned by SpaceX/Seattle (US) in LEO that was launched on Wed, 18 Mar 2020 UTC via an FALCON 9 launch vehicle from the Air Force Eastern Test Range (AFETR). Payload-class satellites include a variety of spacecraft equipped with specific instruments for various scientific and technological missions. These include communications satellites like Starlink; space stations such as the ISS; scientific satellites like the Hubble; Earth observation satellites from companies like Planet Labs, Umbra, and HawkEye 360; GPS; miniature CubeSats for education and research; and military/defense satellites.

Loading next visibility...
Identifier
45379, 2020-019V
Orbit
LEO
Country
Flag of USUS
Related business
Manufacturer
SpaceX/Seattle
Mission
Partially operational Commercial Communications
Bus & Motor
STARLINK, Unknown motor
Mass
260 kg wet, ~248 kg dry
Launch date (UTC)
2020-03-18 (6 years ago)
Launch vehicle
FALCON 9
Launch site
Air Force Eastern Test Range (AFETR)
Object type
Payload
Rocket body
Debris
Shape & HBR
Box + 1 Pan, 10.1 m
Radar Cross Section
13.562 m², Large (>1 m²)

Expand to show TLE details & history
Last TLE update: 1 day ago

TLE from 1 day ago
0 STARLINK-1319
1 45379U 20019V   25338.42760885  .00140244  00000-0  32917-2 0  9990
2 45379  53.0526 226.7521 0006690 116.1158 244.0535 15.41042618315486
Epoch: 2025-12-04T10:15Z
TLE epoch observation values (Epoch: 2025-12-04T10:15:45.404Z)
Latitude
-0.00004°
Longitude
-0.67131°
Altitude
445.922 km
Speed
7.645 km/s
True Right ascension
15h 07m 00s
True Declination
0° 00' 00"
Sunlit
Object was in daylight at epoch
Visualization orbit readout
Latitude
Unknown
Longitude
Unknown
Altitude
Unknown
Speed
Unknown
Apparent Right ascension
Unknown
Apparent Declination
Unknown
Sunlit
N/A
Visualization observer readout
Local Sidereal Time
12:29:02
Azimuth
Unknown
Elevation
Unknown
Doppler factor
Unknown
Orbital elements
Apogee altitude
447.87 km
Perigee altitude
438.742 km
Semi-major axis
6,821.443 km
Eccentricity
0.00067
Inclination
53.0526°
RAAN
226.7521°
Arg. of periapsis
116.1158°
True anomaly
243.98459°
Mean anomaly
244.0535°
Eccentric anomaly
244.01904°
Mean motion
3.85238 °/min
Orbital period
93.45 mins
BSTAR
0.0032917
Loading maneuver chart data...
Computing Atmospheric mass density...

Documentation

Showing up to 5 results
|